Air Resources Laboratory banner image
Air Resources Laboratory web site National Oceanic and Atmospheric Administration (NOAA)

nh roundup


Office: GYX

ASUS41 KGYX 211805
RWRGYX
WEATHER ROUNDUP FOR MAINE AND NEW HAMPSHIRE
NATIONAL WEATHER SERVICE GRAY ME
100 PM EST WED FEB 21 2018

MEZ002-005-006-010-012-015-018-020-021-024-026-027-029-211900-
MAINE

CITY           SKY/WX    TMP DP  RH WIND       PRES   REMARKS
PORTLAND       PTSUNNY   61  53  75 S12       30.05F
6HR MIN TEMP:  35; 6HR MAX TEMP:  61;

SANFORD        FAIR      66  55  67 SW7       30.06F
BAR HARBOR     LGT RAIN  44  44 100 SW13      30.03F VSB 1/2
WISCASSET      FAIR      51  49  92 S8        30.04F
6HR MIN TEMP:  36; 6HR MAX TEMP:  51;

ROCKLAND       CLOUDY    48  48 100 SW7       30.03F
FRYEBURG       FAIR      67  52  58 SW10G20   30.01F
6HR MIN TEMP:  32; 6HR MAX TEMP:  67;

LEWISTONAUBURN FAIR      59  52  77 S15       30.00F
AUGUSTA        FOG       42  42 100 S6        30.02F VSB 1/4
6HR MIN TEMP:  35; 6HR MAX TEMP:  42;

WATERVILLE     CLOUDY    43  42  97 S7        29.96F FOG
BANGOR         PTSUNNY   44  43  96 S9        30.00F
6HR MIN TEMP:  36; 6HR MAX TEMP:  44;

GREENVILLE       N/A     51  45  79 SE7       29.90F
6HR MIN TEMP:  33; 6HR MAX TEMP:  51;

MILLINOCKET    FAIR      47  43  86 SE7       29.94F
6HR MIN TEMP:  36; 6HR MAX TEMP:  47;

HOULTON        CLOUDY    46  44  93 S10       29.92F
6HR MIN TEMP:  33; 6HR MAX TEMP:  46;

PRESQUE ISLE   CLOUDY    40  38  93 S7        29.88F
6HR MIN TEMP:  32; 6HR MAX TEMP:  40;

FRENCHVILLE    CLOUDY    42  41  96 SE9       29.81F FOG
6HR MIN TEMP:  29; 6HR MAX TEMP:  43; 6HR PCP: TRACE;

CARIBOU        CLOUDY    41  38  89 S7        29.86F
6HR MIN TEMP:  32; 6HR MAX TEMP:  41;

$$

NHZ002-005-008-009-011-012-014-211900-
NEW HAMPSHIRE

CITY           SKY/WX    TMP DP  RH WIND       PRES   REMARKS
PORTSMOUTH     PTSUNNY   72  56  57 SW9       30.05F
ROCHESTER      FAIR      68  56  65 VRB7      30.06F
6HR MIN TEMP:  33; 6HR MAX TEMP:  68;

NASHUA         SUNNY     72  57  60 SW8G16    30.10F
MANCHESTER     PTSUNNY   72  55  55 S16G22    30.07F
6HR MIN TEMP:  36; 6HR MAX TEMP:  72;

CONCORD        FAIR      68  55  63 SW7       30.07F
6HR MIN TEMP:  33; 6HR MAX TEMP:  68;

LACONIA        FAIR      62  53  72 SW13      30.06F
PLYMOUTH       FAIR      57  43  57 CALM      30.06F
BERLIN         FAIR      67  50  54 SW14G23   29.98F
6HR MIN TEMP:  32; 6HR MAX TEMP:  67;

WHITEFIELD     FAIR      69  51  52 W16G23    29.99F
6HR MIN TEMP:  32; 6HR MAX TEMP:  70;

JAFFREY        FAIR      65  57  75 S15G22    30.11F
6HR MIN TEMP:  41; 6HR MAX TEMP:  65;

KEENE          FAIR      69  56  62 SW10G18   30.09F
LEBANON        FAIR      53  50  89 S5        30.07F
6HR MIN TEMP:  41; 6HR MAX TEMP:  55;

MT WASHINGTON  PTSUNNY   48  43  81 W77G91      N/A
6HR MIN TEMP:  43; 6HR MAX TEMP:  48;

$$

VTZ005-007-008-211900-
VERMONT

CITY           SKY/WX    TMP DP  RH WIND       PRES   REMARKS
ST JOHNSBURY     N/A     62  51  67 MISG      29.99F
MONTPELIER     FAIR      69  52  54 W14G26    30.06S
BURLINGTON     PTSUNNY   65  53  65 SW13      30.00S
$$

MAZ007-012-024-CTZ003-RIZ002-NYZ038-NYZ072-211900-
SOUTHERN NEW ENGLAND AND NY

CITY           SKY/WX    TMP DP  RH WIND       PRES   REMARKS
BOSTON         PTSUNNY   69  57  65 S20       30.13F
WORCESTER      FAIR      63  56  78 S12       30.15F
NANTUCKET      FOG       46  46 100 SW14      30.27F VSB 1/4
PROVIDENCE     PTSUNNY   63  58  83 SW15      30.20F
HARTFORD       PTSUNNY   72  57  59 S12       30.15F
ALBANY         FAIR      70  54  56 S15G23    30.09F
NEW YORK CITY  FAIR      74  59  59 SW12G22   30.22F
$$

ANZ081-ANZ082-ANZ150-NHZ014-MEZ023>029-211900-
COASTAL MARINE OBSERVATIONS

STATION/POSITION TIME  TEMP    WIND        PRES    WAVE
                       AIR SEA DIR/SP/G            HT/PER
                 (UTC) (F)     (DEG/KT/KT) (MB)    (FT/S)
MOUNT DESERT ROC 1800   47     200/ 23/ 26 1017.3F
MATINICUS ROCK   1700   46     210/ 24/ 24 1017.9F
ISLE OF SHOALS   1700   60     220/ 18/ 19 1019.1F
JEFFREYS LEDGE   1736      42                N/A     4/ 6
GEORGES BANK BUO 1650   51 61              1021.9    8/13
$$

.............KEY..............
   WCI - WIND CHILL
   TC  - TEMPERATURE IN CELSIUS
   VSB - VISIBILITY IN MILES
   HX  - HEAT INDEX
   FAIR- INDICATES FEW OR NO CLOUDS BELOW 12,000 FT, WITH NO
         SIGNIFICANT WEATHER AND/OR OBSTRUCTIONS TO VISIBILITY.




ASUS41 KGYX 211810
RWRGYX
WEATHER ROUNDUP FOR MAINE AND NEW HAMPSHIRE
NATIONAL WEATHER SERVICE GRAY ME
100 PM EST WED FEB 21 2018

MEZ002-005-006-010-012-015-018-020-021-024-026-027-029-211900-
MAINE

CITY           SKY/WX    TMP DP  RH WIND       PRES   REMARKS
PORTLAND       PTSUNNY   61  53  75 S12       30.05F
6HR MIN TEMP:  35; 6HR MAX TEMP:  61;

SANFORD        FAIR      66  55  67 SW7       30.06F
BAR HARBOR     LGT RAIN  44  44 100 SW13      30.03F VSB 1/2
WISCASSET      FAIR      51  49  92 S8        30.04F
6HR MIN TEMP:  36; 6HR MAX TEMP:  51;

ROCKLAND       CLOUDY    48  48 100 SW7       30.03F
FRYEBURG       FAIR      67  52  58 SW10G20   30.01F
6HR MIN TEMP:  32; 6HR MAX TEMP:  67;

LEWISTONAUBURN FAIR      59  52  77 S15       30.00F
AUGUSTA        FOG       42  42 100 S6        30.02F VSB 1/4
6HR MIN TEMP:  35; 6HR MAX TEMP:  42;

WATERVILLE     CLOUDY    43  42  97 S7        29.96F FOG
BANGOR         PTSUNNY   44  43  96 S9        30.00F
6HR MIN TEMP:  36; 6HR MAX TEMP:  44;

GREENVILLE       N/A     51  45  79 SE7       29.90F
6HR MIN TEMP:  33; 6HR MAX TEMP:  51;

MILLINOCKET    FAIR      47  43  86 SE7       29.94F
6HR MIN TEMP:  36; 6HR MAX TEMP:  47;

HOULTON        CLOUDY    46  44  93 S10       29.92F
6HR MIN TEMP:  33; 6HR MAX TEMP:  46;

PRESQUE ISLE   CLOUDY    40  38  93 S7        29.88F
6HR MIN TEMP:  32; 6HR MAX TEMP:  40;

FRENCHVILLE    CLOUDY    42  41  96 SE9       29.81F FOG
6HR MIN TEMP:  29; 6HR MAX TEMP:  43; 6HR PCP: TRACE;

CARIBOU        CLOUDY    41  38  89 S7        29.86F
6HR MIN TEMP:  32; 6HR MAX TEMP:  41;

$$

NHZ002-005-008-009-011-012-014-211900-
NEW HAMPSHIRE

CITY           SKY/WX    TMP DP  RH WIND       PRES   REMARKS
PORTSMOUTH     PTSUNNY   72  56  57 SW9       30.05F
ROCHESTER      FAIR      68  56  65 VRB7      30.06F
6HR MIN TEMP:  33; 6HR MAX TEMP:  68;

NASHUA         SUNNY     72  57  60 SW8G16    30.10F
MANCHESTER     PTSUNNY   72  55  55 S16G22    30.07F
6HR MIN TEMP:  36; 6HR MAX TEMP:  72;

CONCORD        FAIR      68  55  63 SW7       30.07F
6HR MIN TEMP:  33; 6HR MAX TEMP:  68;

LACONIA        FAIR      62  53  72 SW13      30.06F
PLYMOUTH       FAIR      57  43  57 CALM      30.06F
BERLIN         FAIR      67  50  54 SW14G23   29.98F
6HR MIN TEMP:  32; 6HR MAX TEMP:  67;

WHITEFIELD     FAIR      69  51  52 W16G23    29.99F
6HR MIN TEMP:  32; 6HR MAX TEMP:  70;

JAFFREY        FAIR      65  57  75 S15G22    30.11F
6HR MIN TEMP:  41; 6HR MAX TEMP:  65;

KEENE          FAIR      69  56  62 SW10G18   30.09F
LEBANON        FAIR      53  50  89 S5        30.07F
6HR MIN TEMP:  41; 6HR MAX TEMP:  55;

MT WASHINGTON  PTSUNNY   48  43  81 W77G91      N/A
6HR MIN TEMP:  43; 6HR MAX TEMP:  48;

$$

VTZ005-007-008-211900-
VERMONT

CITY           SKY/WX    TMP DP  RH WIND       PRES   REMARKS
ST JOHNSBURY     N/A     62  51  67 MISG      29.99F
MONTPELIER     FAIR      69  52  54 W14G26    30.06S
BURLINGTON     PTSUNNY   65  53  65 SW13      30.00S
$$

MAZ007-012-024-CTZ003-RIZ002-NYZ038-NYZ072-211900-
SOUTHERN NEW ENGLAND AND NY

CITY           SKY/WX    TMP DP  RH WIND       PRES   REMARKS
BOSTON         PTSUNNY   69  57  65 S20       30.13F
WORCESTER      FAIR      63  56  78 S12       30.15F
NANTUCKET      FOG       46  46 100 SW14      30.27F VSB 1/4
PROVIDENCE     PTSUNNY   63  58  83 SW15      30.20F
HARTFORD       PTSUNNY   72  57  59 S12       30.15F
ALBANY         FAIR      70  54  56 S15G23    30.09F
NEW YORK CITY  FAIR      74  59  59 SW12G22   30.22F
$$

ANZ081-ANZ082-ANZ150-NHZ014-MEZ023>029-211900-
COASTAL MARINE OBSERVATIONS

STATION/POSITION TIME  TEMP    WIND        PRES    WAVE
                       AIR SEA DIR/SP/G            HT/PER
                 (UTC) (F)     (DEG/KT/KT) (MB)    (FT/S)
MOUNT DESERT ROC 1800   47     200/ 23/ 26 1017.3F
MATINICUS ROCK   1800   45     210/ 22/ 23 1017.0F
ISLE OF SHOALS   1800   66     210/ 22/ 23 1017.9F
JEFFREYS LEDGE   1736      42                N/A     4/ 6
GEORGES BANK BUO 1650   51 61              1021.9    8/13
$$

.............KEY..............
   WCI - WIND CHILL
   TC  - TEMPERATURE IN CELSIUS
   VSB - VISIBILITY IN MILES
   HX  - HEAT INDEX
   FAIR- INDICATES FEW OR NO CLOUDS BELOW 12,000 FT, WITH NO
         SIGNIFICANT WEATHER AND/OR OBSTRUCTIONS TO VISIBILITY.






Office: BOX ASUS41 KBOX 211810 RWRBOX REGIONAL WEATHER ROUNDUP NATIONAL WEATHER SERVICE TAUNTON MA 100 PM EST WED FEB 21 2018 NOTE: "FAIR" INDICATES FEW OR NO CLOUDS BELOW 12,000 FEET WITH NO SIGNIFICANT WEATHER AND/OR OBSTRUCTIONS TO VISIBILITY. MAZALL-211900- EASTERN MASSACHUSETTS CITY SKY/WX TMP DP RH WIND PRES REMARKS BOSTON PTSUNNY 69 57 65 S20 30.13F 6HR MIN TEMP: 56; 6HR MAX TEMP: 70; BEVERLY FAIR 71 57 61 SW17 30.11F LAWRENCE FAIR 73 56 54 SW14 30.11F BEDFORD FAIR 72 56 57 S16 30.11F BLUE HILL N/A 68 56 65 S18G26 30.14F NORWOOD FAIR 70 57 63 SW15 30.15F MARSHFIELD FAIR 66 57 72 SW12G22 30.16F PLYMOUTH PTSUNNY 64 56 75 SW12G24 30.19F TAUNTON CLOUDY 59 54 83 S10 30.19F NEW BEDFORD CLOUDY 54 52 93 SW9 30.21F $$ MAZALL-211900- CAPE COD AND THE ISLANDS CITY SKY/WX TMP DP RH WIND PRES REMARKS FALMOUTH FOG 50 50 100 SW17 30.24 VSB 1 HYANNIS N/A 55 54 96 SW17G26 30.22F FOG CHATHAM FOG 46 46 100 SW13G23 30.25F VSB 3/4 PROVINCETOWN CLOUDY 48 46 93 SW18 30.18F FOG NANTUCKET FOG 46 46 100 SW14 30.27F VSB 1/4 MARTHAS VNYRD FOG 48 48 100 SW13G22 30.25F VSB 1/4 $$ MAZALL-211900- CENTRAL AND WESTERN MASSACHUSETTS CITY SKY/WX TMP DP RH WIND PRES REMARKS WORCESTER FAIR 63 56 78 S12 30.15F 6HR MIN TEMP: 54; 6HR MAX TEMP: 63; FITCHBURG FAIR 75 58 55 S12 30.12F ORANGE FAIR 66 57 72 S9 30.13F SPRINGFIELD PTSUNNY 71 57 60 S15 30.12F WESTFIELD FAIR 74 57 55 S16 30.12F NORTH ADAMS FAIR 73 54 51 SW10 30.10F PITTSFIELD FAIR 70 52 52 SW16G23 30.13F $$ RIZALL-211900- RHODE ISLAND CITY SKY/WX TMP DP RH WIND PRES REMARKS PROVIDENCE PTSUNNY 63 58 83 SW15 30.20F 6HR MIN TEMP: 58; 6HR MAX TEMP: 63; NEWPORT CLOUDY 50 50 100 SW9G18 30.22F FOG BLOCK ISLAND LGT RAIN 48 48 100 SW20G25 30.25F VSB 1/4 SMITHFIELD FAIR 65 56 72 VRB5 30.18F WESTERLY CLOUDY 51 51 100 SW5 30.24F FOG $$ CTZALL-211900- CONNECTICUT CITY SKY/WX TMP DP RH WIND PRES REMARKS BRADLEY INTL PTSUNNY 72 57 59 S12 30.15F 6HR MIN TEMP: 53; 6HR MAX TEMP: 72; HARTFORD FAIR 67 57 70 S12 30.18F BRIDGEPORT FAIR 57 52 83 SW9 30.21F DANBURY FAIR 72 57 59 W16G24 30.21F GROTON FOG 48 47 96 SW7 30.23F VSB 1/4 NEW HAVEN FOG 54 51 90 S5 30.22F VSB 1 CHESTER CLOUDY 57 55 94 SW10 30.22F FOG MERIDEN FAIR 64 56 75 S10 30.19F WILLIMANTIC FAIR 68 57 68 SW13G20 30.20F $$ MEZ002-015-021-024-NHZ003-005-008-011-012-014-VTZ005-008-211900- NORTHERN NEW ENGLAND CITY SKY/WX TMP DP RH WIND PRES REMARKS PORTLAND ME PTSUNNY 61 53 75 S12 30.05F 6HR MIN TEMP: 35; 6HR MAX TEMP: 61; BANGOR ME PTSUNNY 44 43 96 S9 30.00F CONCORD NH FAIR 68 55 63 SW7 30.07F MANCHESTER NH PTSUNNY 72 55 55 S16G22 30.07F NASHUA NH SUNNY 72 57 60 SW8G16 30.10F PORTSMOUTH NH PTSUNNY 72 56 57 SW9 30.05F JAFFREY NH FAIR 65 57 75 S15G22 30.11F KEENE NH FAIR 69 56 62 SW10G18 30.09F BURLINGTON VT PTSUNNY 65 53 65 SW13 30.00S MT. WASHINGTON PTSUNNY 48 43 81 W77G91 N/A $$ NYZ052-076-211900- EASTERN NEW YORK CITY SKY/WX TMP DP RH WIND PRES REMARKS ALBANY FAIR 70 54 56 S15G23 30.09F 6HR MIN TEMP: 56; 6HR MAX TEMP: 71; NEW YORK CITY FAIR 74 59 59 SW12G22 30.22F 6HR MIN TEMP: 55; 6HR MAX TEMP: 74; $$ ANZALL-211900- MARINE OBSERVATIONS STATION/POSITION TIME TEMP WIND PRES VSBY WAVE AIR SEA DIR/SP/G HT/PER (UTC) (F) (DEG/KT/KT) (MB) (MI) (FT/S) BOSTON BUOY 1750 53 40 190/ 14/ 16 1019.4F 3/14 BUZZARDS BAY 1700 44 210/ 25/ 27 1024.3F NANTUCKET SOUND 1750 43 38 230/ 14/ 16 1024.2F 2/ 3 MASS BAY-STELLWA 1704 46 40 1019.7F 2/ 3 ISLE OF SHOALS 1800 66 210/ 22/ 23 1017.9F S OF BLOCK IS 1743 39 N/A 6/ 6 $$ ......................KEY......................... SKY/WX - SKY CONDITION/PRESENT WEATHER TMP - TEMPERATURE IN FAHRENHEIT DWPT - DEWPOINT IN FAHRENHEIT RH - RELATIVE HUMIDITY IN PERCENT WIND - DIRECTION AND SPEED IN MPH PRES - MEAN SEA LEVEL PRESSURE IN INCHES OF HG WCI - WIND CHILL INDEX VSB - VISIBILITY IN MILES HX - HEAT INDEX TC - TEMPERATURE IN CELSIUS VRB - VARIABLE WIND DIRECTION N/A - NOT AVAILABLE